Location: Millers Ferry
(32.0990°N, 87.3680°W)
Time: 10:32:38
(UTC-06:00)

CSL-04 Rocket - Visible Passes

Search period start: 22 November 2014 00:00
Search period end: 02 December 2014 00:00
Orbit: 807 x 860 km, 98.9° (Epoch: 22 November)

Date Brightness Start Highest point End Pass type
(mag) Time Alt. Az. Time Alt. Az. Time Alt. Az.
22 Nov 6.2 03:05:18 10° ENE 03:08:35 16° E 03:11:49 10° SE visible
22 Nov 3.8 04:43:52 10° N 04:49:08 50° WNW 04:54:18 10° SSW visible
23 Nov 6.7 02:51:08 10° E 02:51:38 10° E 02:52:09 10° E visible
23 Nov 3.5 04:26:58 10° N 04:32:25 74° WNW 04:37:46 10° SSW visible
24 Nov 3.7 04:10:13 10° NNE 04:15:40 76° ESE 04:21:01 10° S visible
24 Nov 5.4 05:53:37 10° NW 05:55:14 11° WNW 05:56:52 10° W visible
25 Nov 4.4 03:53:35 10° NNE 03:58:53 51° E 04:04:03 10° S visible
25 Nov 5.0 05:35:21 10° NNW 05:38:42 17° WNW 05:42:01 10° WSW visible
26 Nov 5.1 03:37:08 10° NNE 03:42:02 34° E 03:46:52 10° SSE visible
26 Nov 4.6 05:17:50 10° NNW 05:22:07 24° WNW 05:26:20 10° WSW visible
27 Nov 5.7 03:20:54 10° NE 03:25:10 23° E 03:29:22 10° SSE visible
27 Nov 4.2 05:00:37 10° N 05:05:29 35° WNW 05:10:16 10° SW visible
28 Nov 6.2 03:05:06 10° ENE 03:08:15 16° E 03:11:22 10° SE visible
28 Nov 3.7 04:43:35 10° N 04:48:49 51° WNW 04:53:57 10° SSW visible
29 Nov 3.5 04:26:41 10° N 04:32:06 75° WNW 04:37:24 10° SSW visible
30 Nov 3.7 04:09:55 10° NNE 04:15:20 75° ESE 04:20:39 10° S visible
30 Nov 5.3 05:53:17 10° NW 05:54:55 11° WNW 05:56:34 10° W visible
01 Dec 4.4 03:53:18 10° NNE 03:58:32 50° E 04:03:40 10° S visible
01 Dec 5.0 05:35:02 10° NNW 05:38:23 17° WNW 05:41:42 10° WSW visible
